Change the Weather History Date:

Sunday, March 3, 2013

  Actual Average (KCIU) Record (KCIU)
Temperature  
Mean Temperature 11 °F -  
Max Temperature 21 °F 31 °F 51 °F (1983)
Min Temperature 1 °F 8 °F -20 °F (2003)
Degree Days  
Heating Degree Days 54    
Moisture  
Dew Point 6 °F    
Average Humidity 80    
Maximum Humidity 93    
Minimum Humidity 56    
Precipitation  
Precipitation 0.00 in - - ()
Sea Level Pressure  
Sea Level Pressure 30.04 in    
Wind  
Wind Speed 3 mph (NW)    
Max Wind Speed 9 mph    
Max Gust Speed -    
Visibility 10 miles    
Events Snow    
Averages and records for this station are not official NWS values.
T = Trace of Precipitation, MM = Missing Value Source: NWS Daily Summary

Daily Weather History Graph

Daily Weather History Graph

Search for Another Location

Airport or City:

Trip Planner

Search our weather history database for the weather conditions in past years. The results will help you decide how hot, cold, wet, or windy it might be!

Date:

Astronomy

Mar. 03, 2013 Rise Set
Actual Time 7:09 AM EST 6:24 PM EST
Civil Twilight 6:39 AM EST 6:54 PM EST
Nautical Twilight 6:05 AM EST 7:29 PM EST
Astronomical Twilight 5:30 AM EST 8:04 PM EST
Moon 12:22 AM EST (3/3) 10:02 AM EST (3/3)
Length of Visible Light 12h 14m
Length of Day
11h 14m
Waning Gibbous, 64% of the Moon is Illuminated
Mar 3
Waning Gibbous
Mar 4
Last Quarter
Mar 11
New
Mar 19
First Quarter
Mar 27
Full

Hourly Weather History & Observations

Time (EST) Temp. Windchill Dew Point Humidity Pressure Visibility Wind Dir Wind Speed Gust Speed Precip Events Conditions
12:16 AM 13.8 °F 4.9 °F 7.9 °F 77% 30.05 in 10.0 mi North 5.8 mph - N/A   Clear
12:37 AM 14.0 °F 6.5 °F 7.7 °F 76% 30.05 in 10.0 mi North 4.6 mph - N/A   Clear
12:56 AM 13.3 °F 5.6 °F 7.5 °F 78% 30.05 in 10.0 mi North 4.6 mph - N/A   Clear
1:16 AM 11.5 °F - 6.4 °F 80% 30.05 in 10.0 mi Calm Calm - N/A   Clear
1:37 AM 10.4 °F - 6.3 °F 83% 30.05 in 10.0 mi Calm Calm - N/A   Clear
1:56 AM 8.8 °F - 5.0 °F 85% 30.05 in 10.0 mi Calm Calm - N/A   Clear
2:16 AM 9.0 °F - 5.5 °F 86% 30.05 in 10.0 mi Calm Calm - N/A   Clear
2:36 AM 7.5 °F - 4.5 °F 87% 30.05 in 10.0 mi Calm Calm - N/A   Clear
2:56 AM 6.4 °F - 4.3 °F 91% 30.04 in 10.0 mi Calm Calm - N/A   Clear
3:16 AM 5.5 °F - 3.7 °F 92% 30.04 in 10.0 mi Calm Calm - N/A   Clear
3:36 AM 4.1 °F - 2.3 °F 92% 30.03 in 10.0 mi Calm Calm - N/A   Clear
4:16 AM 3.2 °F - 1.0 °F 91% 30.03 in 10.0 mi Calm Calm - N/A   Clear
4:36 AM 2.8 °F - 0.7 °F 91% 30.03 in 10.0 mi Calm Calm - N/A   Clear
4:56 AM 1.8 °F - -0.8 °F 89% 30.04 in 10.0 mi Calm Calm - N/A   Clear
5:16 AM 3.2 °F - 0.9 °F 90% 30.04 in 10.0 mi Calm Calm - N/A   Clear
5:36 AM 1.6 °F - -1.1 °F 88% 30.04 in 10.0 mi Calm Calm - N/A   Clear
5:56 AM 1.4 °F - -1.3 °F 88% 30.04 in 10.0 mi Calm Calm - N/A   Clear
6:16 AM 1.6 °F - -1.1 °F 88% 30.05 in 10.0 mi Calm Calm - N/A   Clear
6:36 AM 2.1 °F - -0.8 °F 88% 30.05 in 10.0 mi Calm Calm - N/A   Clear
7:16 AM 2.1 °F - -0.6 °F 88% 30.06 in 10.0 mi Calm Calm - N/A   Clear
7:36 AM 1.8 °F - -1.1 °F 88% 30.06 in 10.0 mi Calm Calm - N/A   Clear
7:57 AM 4.6 °F -4.5 °F 2.3 °F 90% 30.06 in 10.0 mi North 4.6 mph - N/A   Clear
8:16 AM 5.7 °F -3.2 °F 3.2 °F 89% 30.06 in 10.0 mi North 4.6 mph - N/A   Clear
8:36 AM 6.8 °F -4.8 °F 4.5 °F 90% 30.06 in 10.0 mi North 6.9 mph - N/A   Clear
8:56 AM 7.7 °F -0.9 °F 5.2 °F 89% 30.06 in 10.0 mi North 4.6 mph - N/A   Mostly Cloudy
9:16 AM 8.4 °F -2.8 °F 5.9 °F 89% 30.06 in 10.0 mi North 6.9 mph - N/A   Mostly Cloudy
9:37 AM 9.3 °F -0.5 °F 4.5 °F 81% 30.06 in 10.0 mi North 5.8 mph - N/A   Scattered Clouds
9:56 AM 9.1 °F -1.9 °F 4.1 °F 80% 30.06 in 10.0 mi North 6.9 mph - N/A   Mostly Cloudy
10:16 AM 9.5 °F -1.5 °F 4.5 °F 80% 30.06 in 10.0 mi North 6.9 mph - N/A   Overcast
10:36 AM 10.0 °F -0.9 °F 4.5 °F 78% 30.06 in 7.0 mi North 6.9 mph - N/A Snow Light Snow
10:56 AM 10.9 °F 1.4 °F 4.8 °F 76% 30.06 in 10.0 mi North 5.8 mph - N/A Snow Light Snow
11:16 AM 11.5 °F -1.1 °F 5.2 °F 76% 30.06 in 10.0 mi North 9.2 mph - N/A Snow Light Snow
11:36 AM 13.1 °F 1.8 °F 6.4 °F 75% 30.05 in 10.0 mi North 8.1 mph - N/A Snow Light Snow
11:56 AM 12.9 °F 2.6 °F 5.9 °F 74% 30.05 in 7.0 mi North 6.9 mph - N/A Snow Light Snow
12:17 PM 13.5 °F 4.4 °F 5.9 °F 72% 30.05 in 10.0 mi North 5.8 mph - N/A Snow Light Snow
12:36 PM 14.4 °F 3.3 °F 6.4 °F 71% 30.05 in 10.0 mi North 8.1 mph - N/A   Overcast
12:56 PM 15.8 °F 8.6 °F 7.3 °F 69% 30.04 in 10.0 mi North 4.6 mph - N/A   Overcast
1:16 PM 16.9 °F 9.8 °F 7.5 °F 67% 30.03 in 10.0 mi WNW 4.6 mph - N/A   Overcast
1:36 PM 17.4 °F 7.1 °F 7.5 °F 65% 30.03 in 10.0 mi West 8.1 mph - N/A   Overcast
1:57 PM 18.0 °F 12.7 °F 7.7 °F 64% 30.02 in 10.0 mi WNW 3.5 mph - N/A   Overcast
2:16 PM 18.3 °F 11.5 °F 7.5 °F 63% 30.01 in 10.0 mi WNW 4.6 mph - N/A   Overcast
2:57 PM 19.8 °F 14.7 °F 7.3 °F 59% 30.01 in 10.0 mi West 3.5 mph - N/A   Mostly Cloudy
3:16 PM 19.9 °F 11.1 °F 7.7 °F 59% 30.01 in 10.0 mi West 6.9 mph - N/A   Mostly Cloudy
3:36 PM 21.0 °F 14.6 °F 8.2 °F 58% 30.00 in 10.0 mi West 4.6 mph - N/A   Scattered Clouds
3:56 PM 20.7 °F 13.0 °F 7.9 °F 58% 30.00 in 10.0 mi West 5.8 mph - N/A   Clear
4:16 PM 21.0 °F 14.6 °F 7.7 °F 56% 30.00 in 10.0 mi West 4.6 mph - N/A   Clear
4:56 PM 21.2 °F 14.9 °F 7.5 °F 56% 30.00 in 10.0 mi West 4.6 mph - N/A   Clear
5:16 PM 21.0 °F 16.2 °F 7.7 °F 56% 30.00 in 10.0 mi West 3.5 mph - N/A   Clear
5:36 PM 20.5 °F 10.0 °F 8.6 °F 60% 30.01 in 10.0 mi WNW 9.2 mph - N/A   Clear
5:56 PM 19.9 °F 10.1 °F 8.6 °F 61% 30.01 in 10.0 mi WNW 8.1 mph - N/A   Clear
6:16 PM 19.0 °F 10.0 °F 8.6 °F 64% 30.01 in 10.0 mi WNW 6.9 mph - N/A   Clear
6:37 PM 18.3 °F 9.1 °F 9.0 °F 67% 30.02 in 10.0 mi WNW 6.9 mph - N/A   Clear
6:56 PM 17.2 °F 8.9 °F 9.5 °F 72% 30.02 in 10.0 mi WNW 5.8 mph - N/A   Clear
7:16 PM 16.2 °F 6.5 °F 10.9 °F 80% 30.03 in 10.0 mi WNW 6.9 mph - N/A   Clear
7:37 PM 15.3 °F 7.9 °F 11.1 °F 84% 30.03 in 10.0 mi WNW 4.6 mph - N/A   Clear
7:56 PM 14.9 °F 6.1 °F 11.1 °F 85% 30.03 in 10.0 mi NW 5.8 mph - N/A   Clear
8:16 PM 14.4 °F 8.6 °F 11.1 °F 87% 30.03 in 10.0 mi NW 3.5 mph - N/A   Clear
8:36 PM 13.6 °F - 10.9 °F 89% 30.03 in 10.0 mi Calm Calm - N/A   Clear
8:56 PM 12.6 °F - 10.2 °F 90% 30.03 in 10.0 mi Calm Calm - N/A   Clear
9:16 PM 12.7 °F - 10.6 °F 91% 30.04 in 10.0 mi Calm Calm - N/A   Clear
9:36 PM 12.6 °F - 10.4 °F 91% 30.03 in 10.0 mi Calm Calm - N/A   Clear
9:56 PM 10.4 °F - 8.6 °F 92% 30.03 in 10.0 mi Calm Calm - N/A   Clear
10:16 PM 8.4 °F - 6.8 °F 93% 30.04 in 10.0 mi Calm Calm - N/A   Clear
10:36 PM 6.6 °F - 4.6 °F 92% 30.04 in 10.0 mi Calm Calm - N/A   Clear
10:56 PM 7.2 °F - 5.2 °F 92% 30.04 in 10.0 mi Calm Calm - N/A   Clear
11:16 PM 6.1 °F - 3.9 °F 91% 30.04 in 10.0 mi Calm Calm - N/A   Clear
11:36 PM 3.7 °F - 1.6 °F 91% 30.04 in 10.0 mi Calm Calm - N/A   Clear
11:56 PM 4.6 °F - 2.3 °F 90% 30.04 in 10.0 mi Calm Calm - N/A   Clear